WX2NJ Weather Reports


time (UTC)temp
F
wind
direction
speed
knots
gust
knots
rain 1hr
in
rain 24hr
in
rain mn
in
humidity
%
barometer
mb
20260505064957 58 155 4.3 4.3 0.00 0.00 0.00 79 1014.1
20260505064454 58 187 2.6 4.3 0.00 0.00 0.00 80 1014.1
20260505063953 58 213 1.7 4.3 0.00 0.00 0.00 80 1014.1
20260505063449 58 158 2.6 3.5 0.00 0.00 0.00 80 1014.0
20260505062945 58 155 2.6 3.5 0.00 0.00 0.00 81 1014.2
20260505062442 58 162 1.7 3.5 0.00 0.00 0.00 80 1014.4
20260505061939 58 161 2.6 3.5 0.00 0.00 0.00 81 1014.3
20260505061437 58 168 0.0 4.3 0.00 0.00 0.00 80 1014.2
20260505060935 58 180 0.0 4.3 0.00 0.00 0.00 81 1014.2
20260505060432 58 106 0.9 6.1 0.00 0.00 0.00 81 1014.4
20260505055928 58 144 1.7 2.6 0.00 0.00 0.00 81 1014.3
20260505055424 58 165 0.9 5.2 0.00 0.00 0.00 81 1014.1
20260505054921 58 152 1.7 4.3 0.00 0.00 0.00 80 1014.5
20260505054418 58 147 1.7 3.5 0.00 0.00 0.00 80 1014.3
20260505053916 58 180 2.6 4.3 0.00 0.00 0.00 80 1014.2
20260505053413 58 130 2.6 4.3 0.00 0.00 0.00 79 1014.4
20260505052910 58 167 2.6 3.5 0.00 0.00 0.00 79 1014.4
20260505052407 58 153 3.5 4.3 0.00 0.00 0.00 79 1014.5
20260505051904 58 156 2.6 3.5 0.00 0.00 0.00 79 1014.5
20260505051401 58 180 1.7 3.5 0.00 0.00 0.00 79 1014.5
20260505050859 58 154 3.5 3.5 0.00 0.00 0.00 78 1014.6
20260505050357 59 172 1.7 3.5 0.00 0.00 0.00 78 1014.8
20260505041325 60 148 3.5 4.3 0.00 0.00 0.00 75 1015.1
20260505040821 60 180 1.7 4.3 0.00 0.00 0.00 75 1015.0
20260505040319 60 155 2.6 4.3 0.00 0.00 0.00 75 1015.1
20260505035816 60 167 2.6 4.3 0.00 0.00 0.00 74 1014.9
20260505035311 60 203 3.5 5.2 0.00 0.00 0.00 74 1015.0
20260505034809 60 177 1.7 4.3 0.00 0.00 0.00 73 1014.9
20260505034306 60 168 1.7 5.2 0.00 0.00 0.00 72 1015.0
20260505033803 60 173 1.7 4.3 0.00 0.00 0.00 72 1015.0
20260505033259 60 164 3.5 5.2 0.00 0.00 0.00 71 1014.9
20260505032758 60 176 1.7 3.5 0.00 0.00 0.00 71 1015.0
20260505032254 61 158 5.2 5.2 0.00 0.00 0.00 70 1015.1
20260505031751 61 201 1.7 7.0 0.00 0.00 0.00 69 1015.1
20260505031247 60 178 2.6 4.3 0.00 0.00 0.00 69 1015.3
20260505030744 61 145 2.6 4.3 0.00 0.00 0.00 68 1015.3
20260505030240 60 156 1.7 4.3 0.00 0.00 0.00 68 1015.2
20260505025736 61 166 2.6 3.5 0.00 0.00 0.00 67 1015.1
20260505025234 61 157 2.6 4.3 0.00 0.00 0.00 65 1015.1
20260505024732 62 163 1.7 4.3 0.00 0.00 0.00 64 1015.2
20260505024229 62 178 2.6 4.3 0.00 0.00 0.00 63 1015.2
20260505023727 62 180 1.7 3.5 0.00 0.00 0.00 62 1015.2
20260505023224 62 163 2.6 3.5 0.00 0.00 0.00 62 1015.2
20260505022721 62 159 1.7 3.5 0.00 0.00 0.00 61 1015.4
20260505022218 63 160 2.6 6.1 0.00 0.00 0.00 60 1015.3
20260505021714 62 163 2.6 4.3 0.00 0.00 0.00 61 1015.2
20260505021212 62 185 2.6 4.3 0.00 0.00 0.00 61 1015.3
20260505020707 62 177 1.7 3.5 0.00 0.00 0.00 61 1015.5
20260505020203 62 167 3.5 4.3 0.00 0.00 0.00 61 1015.2
20260505015700 62 180 0.9 6.1 0.00 0.00 0.00 60 1015.3
20260505015157 62 145 3.5 4.3 0.00 0.00 0.00 61 1015.2
20260505014654 62 270 0.0 4.3 0.00 0.00 0.00 62 1015.4
20260505014151 62 173 1.7 2.6 0.00 0.00 0.00 62 1015.5
20260505013648 62 156 3.5 5.2 0.00 0.00 0.00 62 1015.4
20260505013145 62 154 2.6 5.2 0.00 0.00 0.00 62 1015.2
20260505012644 62 189 1.7 4.3 0.00 0.00 0.00 62 1015.3
20260505012140 62 180 2.6 4.3 0.00 0.00 0.00 62 1015.1
20260505011636 62 131 2.6 7.0 0.00 0.00 0.00 62 1015.0
20260505011134 62 180 3.5 4.3 0.00 0.00 0.00 63 1015.0
20260505010634 61 156 3.5 4.3 0.00 0.00 0.00 63 1015.0
20260505010131 62 172 1.7 5.2 0.00 0.00 0.00 62 1015.0
20260505005627 62 182 2.6 4.3 0.00 0.00 0.00 62 1014.9
20260505005124 62 270 0.0 4.3 0.00 0.00 0.00 62 1014.8
20260505004621 61 161 3.5 4.3 0.00 0.00 0.00 63 1014.7
20260505004118 61 153 2.6 3.5 0.00 0.00 0.00 63 1014.8
20260505003615 61 182 2.6 4.3 0.00 0.00 0.00 63 1014.7
20260505003113 61 182 2.6 5.2 0.00 0.00 0.00 63 1014.6
20260505002608 61 158 4.3 4.3 0.00 0.00 0.00 64 1014.8
20260505002107 61 180 2.6 5.2 0.00 0.00 0.00 64 1014.6
20260505001604 61 168 1.7 3.5 0.00 0.00 0.00 64 1014.6
20260505001101 61 179 4.3 4.3 0.00 0.00 0.00 64 1014.6
20260505000558 61 170 2.6 6.1 0.00 0.00 0.00 64 1014.5
20260505000056 61 148 3.5 3.5 0.00 0.00 0.00 64 1014.5
20260504235552 61 190 4.3 4.3 0.00 0.00 0.00 64 1014.5
20260504235049 62 172 3.5 4.3 0.00 0.00 0.00 63 1014.2
20260504234546 62 140 2.6 5.2 0.00 0.00 0.00 62 1014.4
20260504234043 62 157 2.6 6.1 0.00 0.00 0.00 60 1014.2
20260504233538 63 160 2.6 4.3 0.00 0.00 0.00 59 1014.2
20260504233035 63 181 5.2 7.8 0.00 0.00 0.00 58 1014.1
20260504232532 63 156 4.3 4.3 0.00 0.00 0.00 57 1014.3
20260504232030 64 180 1.7 6.1 0.00 0.00 0.00 56 1014.4
20260504231526 64 139 3.5 4.3 0.00 0.00 0.00 55 1014.4
20260504231022 64 164 3.5 4.3 0.00 0.00 0.00 53 1014.2
20260504230519 65 176 3.5 6.1 0.00 0.00 0.00 52 1013.8
20260504230018 65 160 4.3 4.3 0.00 0.00 0.00 52 1014.1
20260504225515 66 178 3.5 4.3 0.00 0.00 0.00 51 1013.9
20260504225012 66 179 3.5 6.1 0.00 0.00 0.00 49 1013.9
20260504224509 66 141 2.6 4.3 0.00 0.00 0.00 49 1013.7
20260504224006 66 182 2.6 4.3 0.00 0.00 0.00 49 1013.9
20260504223502 66 182 3.5 5.2 0.00 0.00 0.00 48 1013.8
20260504222957 66 159 4.3 9.6 0.00 0.00 0.00 47 1014.0
20260504222455 66 173 3.5 7.0 0.00 0.00 0.00 49 1013.9
20260504221952 66 187 4.3 6.1 0.00 0.00 0.00 49 1014.0
20260504221449 66 161 5.2 7.8 0.00 0.00 0.00 50 1013.8
20260504220946 66 185 4.3 4.3 0.00 0.00 0.00 50 1013.8
20260504220443 66 157 4.3 7.0 0.00 0.00 0.00 49 1014.1
20260504215940 67 175 4.3 7.0 0.00 0.00 0.00 48 1013.9
20260504215436 67 155 6.1 9.6 0.00 0.00 0.00 47 1014.0
20260504214933 68 188 2.6 8.7 0.00 0.00 0.00 45 1014.0
20260504214429 68 188 3.5 5.2 0.00 0.00 0.00 45 1014.0
20260504213926 68 172 3.5 7.8 0.00 0.00 0.00 44 1014.0
20260504213422 68 237 2.6 7.8 0.00 0.00 0.00 45 1013.9
20260504212920 68 159 8.7 8.7 0.00 0.00 0.00 44 1013.9
20260504212415 68 135 1.7 10.4 0.00 0.00 0.00 43 1013.8
20260504211914 69 194 2.6 7.8 0.00 0.00 0.00 43 1014.1
20260504211410 69 169 4.3 7.0 0.00 0.00 0.00 44 1014.0
20260504210907 68 193 5.2 11.3 0.00 0.00 0.00 44 1014.0
20260504210404 68 163 1.7 7.8 0.00 0.00 0.00 44 1013.8
20260504205901 68 139 5.2 9.6 0.00 0.00 0.00 45 1013.9
20260504205359 68 161 7.8 8.7 0.00 0.00 0.00 44 1013.9
20260504204857 69 209 2.6 7.0 0.00 0.00 0.00 44 1013.8
20260504204355 69 157 5.2 11.3 0.00 0.00 0.00 44 1014.0
20260504203854 70 214 4.3 7.0 0.00 0.00 0.00 42 1013.8
20260504203350 70 180 4.3 7.0 0.00 0.00 0.00 43 1013.9
20260504202847 70 169 3.5 7.8 0.00 0.00 0.00 43 1013.8
20260504202344 69 142 1.7 7.0 0.00 0.00 0.00 46 1014.0
20260504201840 69 170 2.6 7.8 0.00 0.00 0.00 48 1014.1
20260504201338 69 178 3.5 4.3 0.00 0.00 0.00 51 1013.7
20260504200835 68 129 4.3 7.8 0.00 0.00 0.00 52 1013.7
20260504200331 68 163 5.2 7.0 0.00 0.00 0.00 52 1013.9
20260504195828 68 176 3.5 8.7 0.00 0.00 0.00 51 1013.9
20260504195323 69 119 2.6 10.4 0.00 0.00 0.00 51 1014.2
20260504194821 69 162 4.3 8.7 0.00 0.00 0.00 49 1014.2
20260504194316 69 168 4.3 9.6 0.00 0.00 0.00 46 1014.3
20260504193812 70 174 4.3 7.8 0.00 0.00 0.00 46 1013.9
20260504193310 70 170 7.8 8.7 0.00 0.00 0.00 48 1014.0
20260504192809 69 141 4.3 11.3 0.00 0.00 0.00 48 1014.1
20260504192306 70 159 1.7 11.3 0.00 0.00 0.00 47 1014.3
20260504191805 69 159 3.5 8.7 0.00 0.00 0.00 47 1014.4
20260504191301 70 180 5.2 13.9 0.00 0.00 0.00 47 1014.5
20260504190757 70 127 5.2 7.0 0.00 0.00 0.00 46 1014.4
20260504190253 70 188 5.2 8.7 0.00 0.00 0.00 46 1014.4
20260504185750 70 151 5.2 8.7 0.00 0.00 0.00 46 1014.6
20260504185247 69 179 5.2 13.0 0.00 0.00 0.00 47 1014.5
20260504184743 69 161 5.2 9.6 0.00 0.00 0.00 48 1014.7
20260504184239 69 131 2.6 6.1 0.00 0.00 0.00 48 1014.6
20260504183735 70 193 2.6 6.1 0.00 0.00 0.00 48 1014.7
20260504183232 70 109 2.6 7.0 0.00 0.00 0.00 48 1014.8
20260504182730 69 116 2.6 7.0 0.00 0.00 0.00 51 1014.9
20260504182227 69 158 4.3 6.1 0.00 0.00 0.00 49 1014.9
20260504181725 69 109 6.1 7.8 0.00 0.00 0.00 51 1015.1
20260504181222 70 162 3.5 7.0 0.00 0.00 0.00 50 1015.3
20260504180721 70 153 3.5 6.1 0.00 0.00 0.00 48 1015.3
20260504180219 69 181 4.3 9.6 0.00 0.00 0.00 49 1015.4
20260504175716 70 157 4.3 8.7 0.00 0.00 0.00 48 1015.3
20260504175213 71 195 3.5 5.2 0.00 0.00 0.00 47 1015.4
20260504174711 70 126 5.2 14.8 0.00 0.00 0.00 51 1015.5
20260504174209 72 174 2.6 5.2 0.00 0.00 0.00 36 1015.5
20260504173704 74 184 2.6 5.2 0.00 0.00 0.00 28 1015.6
20260504173202 72 119 6.1 7.8 0.00 0.00 0.00 38 1015.5
20260504172658 74 291 0.9 7.8 0.00 0.00 0.00 26 1015.8
20260504172155 73 168 1.7 5.2 0.00 0.00 0.00 28 1015.5
20260504171651 74 177 2.6 5.2 0.00 0.00 0.00 28 1015.6
20260504171149 74 165 2.6 6.1 0.00 0.00 0.00 28 1015.8
20260504170645 73 228 3.5 5.2 0.00 0.00 0.00 27 1015.8
20260504170143 73 161 2.6 5.2 0.00 0.00 0.00 27 1015.9
20260504151028 71 257 0.9 4.3 0.00 0.00 0.00 33 1017.1
20260504150525 69 201 2.6 6.1 0.00 0.00 0.00 34 1017.2
20260504140951 67 161 3.5 9.6 0.00 0.00 0.00 33 1017.6
20260504140447 67 160 6.1 7.8 0.00 0.00 0.00 33 1017.6
20260504130412 64 185 5.2 6.1 0.00 0.00 0.00 43 1018.1
20260504110259 53 162 2.6 5.2 0.00 0.00 0.00 66 1019.0
20260504100217 48 151 1.7 4.3 0.00 0.00 0.00 69 1018.8
20260504090140 49 196 1.7 4.3 0.00 0.00 0.00 66 1018.8
20260504081610 48 208 1.7 2.6 0.00 0.00 0.00 63 1018.5
20260504081106 48 117 1.7 1.7 0.00 0.00 0.00 63 1018.7
20260504080603 48 170 2.6 2.6 0.00 0.00 0.00 64 1018.7